Weather Roundup
Issued by NWS Chicago, IL

Home | Current Version | Previous Version | Graphics & Text | Print | Product List | Glossary On
Versions: 1 2 3 4 5 6 7 8 9 10 11 12 13 14 15 16 17 18 19 20 21 22 23 24 25 26 27 28 29 30 31 32 33 34 35 36 37 38 39 40 41 42 43 44 45 46 47 48 49 50
000
NZUS59 KLOT 210208
HRRLOT

CHICAGO AREA WEATHER ROUNDUP
NATIONAL WEATHER SERVICE CHICAGO/ROMEOVILLE IL
900 PM CDT SUN AUG 20 2017

NOTE: "FAIR" INDICATES FEW OR NO CLOUDS BELOW 12,000 FEET WITH NO
SIGNIFICANT WEATHER AND/OR OBSTRUCTIONS TO VISIBILITY.

* THESE STATIONS ARE NOT UNDER NWS QUALITY CONTROL. THEY ALSO MAY NOT
  REPORT WEATHER SUCH AS PRECIPITATION OR FOG.

ILZ005-006-012>014-019>023-210300-
NORTHEAST ILLINOIS

CITY           SKY/WX    TMP DP  RH WIND       PRES   REMARKS
OHARE          CLOUDY    80  70  71 S10       30.03R HX  83
MIDWAY         CLOUDY    83  70  64 S5        30.03R HX  87
AURORA         CLOUDY    75  73  93 E5        30.03S
LANSING*       PTCLDY    78  67  69 CALM      30.04R HX  80
JOLIET*        CLOUDY    77  74  92 CALM      30.02S
WAUKEGAN       CLOUDY    74  70  87 CALM      30.03R
DUPAGE AIRPORT CLOUDY    75  73  93 CALM      30.03R
WHEELING       CLOUDY    79  72  79 CALM      30.04R HX  82
MORRIS*        CLOUDY    76  71  84 SE7       30.01R
LEWIS AIRPORT* CLOUDY    77  70  78 E7        30.03S
NORTHERLY ISL    N/A     80  68  66 S3          N/A  HX  83
$$

WIZ051-052-058>065-066-070>072-210300-
SOUTHEAST WISCONSIN

CITY           SKY/WX    TMP DP  RH WIND       PRES   REMARKS
MILWAUKEE      PTCLDY    75  65  70 CALM      30.03R
KENOSHA*       CLOUDY    73  67  81 W3        30.04R
RACINE*        CLOUDY    74  67  78 CALM      30.05R
WAUKESHA       CLEAR     72  66  83 SE5       30.04R
WEST BEND      CLEAR     68  68 100 CALM      30.03R
$$

INZ001>003-010>013-019-020-210300-
NORTHWEST INDIANA

CITY           SKY/WX    TMP DP  RH WIND       PRES   REMARKS
GARY*          CLOUDY    77  70  78 SE3       30.05R
MICHIGAN CITY* NOT AVBL
RENSSELAER*    NOT AVBL
VALPARAISO     CLOUDY    79  69  71 SE5       30.05S HX  81
$$

LMZ740>746-210300-
SOUTHERN LAKE MICHIGAN

STATION/POSITION TIME  SKY/WX   TEMP WIND        PRES    VSBY
                                AIR  DIR/SP/G
                 (UTC)          (F)  (DEG/KT/KT) (MB)    (MI)
HARRISON CRIB    0140            79  190/ 10/ 10   N/A
BURNHAM HARBOR   NOT AVBL
CALUMET HARBOR   0148            81  150/  3/  4 1016.5R
BURNS HARBOR     0040            82  180/  6/ 10 1017.3
MICHIGAN CITY    0140            80  140/  7/  8   N/A
$$

ABBREVIATIONS USED IN REMARKS
   TC - TEMPERATURE IN CELSIUS
  WCI - WIND CHILL INDEX
   HX - HEAT INDEX
  VSB - VISIBILITY
$$




USA.gov is the U.S. government's official web portal to all federal, state and local government web resources and services.